User: anonymous   Login
Location: Edoum�
(0.9447°N, 10.6482°E)
Time: 14:56:24
(UTC+00:00)
Language:

GPS 2-15 Rocket1 - Orbit

View from above orbital plane
View from above orbital plane
View from above satellite
View from above satellite

Ground track
Ground track

The orbit data is extracted from the following two-line orbital elements,

1 22109U 92058B   21173.49399581  .00000499  00000-0  18666-4 0  9993
2 22109  19.7829 282.6448 0036372 256.0666 103.5700 14.73681075526054
Epoch (UTC): 22 June 2021 11:51:21
Eccentricity: 0.0036372
inclination: 19.7829°
perigee height: 624 km
apogee height: 675 km
right ascension of ascending node: 282.6448°
argument of perigee: 256.0666°
revolutions per day: 14.73681075
mean anomaly at epoch: 103.5700°
orbit number at epoch: 52605

The dashed part of the orbit path shows where the satellite is in the earth's shadow,  

DLR